Greenville, ME

3:05 AM EDT on October 22, 2017 (GMT -0400)
Greenville

Weather History for KGNR - November, 2011

Change the Weather History Date:

Tuesday, November 22, 2011

  Actual Average (KMLT) Record (KMLT)
Temperature  
Mean Temperature 24 °F -  
Max Temperature 33 °F 36 °F 64 °F (1903)
Min Temperature 15 °F 22 °F 2 °F (1978)
Degree Days  
Heating Degree Days 41    
Moisture  
Dew Point 11 °F    
Average Humidity 61    
Maximum Humidity 92    
Minimum Humidity 33    
Precipitation  
Precipitation 0.00 in - - ()
Sea Level Pressure  
Sea Level Pressure 30.36 in    
Wind  
Wind Speed 2 mph (NNW)    
Max Wind Speed 9 mph    
Max Gust Speed -    
Averages and records for this station are not official NWS values.
T = Trace of Precipitation, MM = Missing Value Source: NWS Daily Summary

Daily Weather History Graph

Daily Weather History Graph

Search for Another Location

Airport or City:

Trip Planner

Search our weather history database for the weather conditions in past years. The results will help you decide how hot, cold, wet, or windy it might be!

Date:

Astronomy

Nov. 22, 2011 Rise Set
Actual Time 6:46 AM EST 4:02 PM EST
Civil Twilight 6:13 AM EST 4:34 PM EST
Nautical Twilight 5:37 AM EST 5:11 PM EST
Astronomical Twilight 5:01 AM EST 5:46 PM EST
Moon 3:26 AM EST 2:04 PM EST
Length of Visible Light 10h 21m
Length of Day
9h 15m
Waning Crescent, 9% of the Moon is Illuminated
Nov 22
Waning Crescent
Nov 25
New
Dec 2
First Quarter
Dec 10
Full
Dec 17
Last Quarter

Hourly Weather History & Observations

Time (EST) Temp. Windchill Dew Point Humidity Pressure Visibility Wind Dir Wind Speed Gust Speed Precip Events Conditions
12:56 AM 18.0 °F - 10.9 °F 74% 30.36 in - Calm Calm - N/A   Unknown
1:56 AM 18.0 °F - 12.0 °F 78% 30.36 in - Calm Calm - N/A   Unknown
2:56 AM 17.1 °F - 9.0 °F 71% 30.36 in - Calm Calm - N/A   Unknown
3:56 AM 15.1 °F - 10.0 °F 80% 30.37 in - Calm Calm - N/A   Unknown
4:56 AM 15.1 °F 7.7 °F 12.9 °F 91% 30.37 in - NNE 4.6 mph - N/A   Unknown
5:56 AM 15.1 °F - 10.9 °F 84% 30.38 in - Calm Calm - N/A   Unknown
6:56 AM 16.0 °F - 9.0 °F 74% 30.39 in - Calm Calm - N/A   Unknown
7:56 AM 19.9 °F 14.9 °F 18.0 °F 92% 30.40 in - NNE 3.5 mph - N/A   Unknown
8:56 AM 25.0 °F - 18.0 °F 75% 30.39 in - Calm Calm - N/A   Unknown
9:56 AM 28.0 °F 24.2 °F 15.1 °F 58% 30.40 in - Variable 3.5 mph - N/A   Unknown
10:56 AM 28.9 °F 22.8 °F 12.0 °F 49% 30.38 in - NNW 5.8 mph - N/A   Unknown
11:56 AM 30.9 °F 22.8 °F 12.0 °F 46% 30.35 in - NW 9.2 mph - N/A   Unknown
12:56 PM 32.0 °F 24.8 °F 10.0 °F 40% 30.34 in - NNW 8.1 mph - N/A   Unknown
1:56 PM 33.1 °F 26.9 °F 9.0 °F 37% 30.32 in - Variable 6.9 mph - N/A   Unknown
2:56 PM 30.9 °F 26.2 °F 5.0 °F 33% 30.34 in - Variable 4.6 mph - N/A   Unknown
3:56 PM 28.9 °F 23.9 °F 7.0 °F 40% 30.35 in - NW 4.6 mph - N/A   Unknown
4:56 PM 27.0 °F - 7.0 °F 43% 30.36 in - Calm Calm - N/A   Unknown
5:56 PM 27.0 °F 18.7 °F 9.0 °F 47% 30.38 in - NW 8.1 mph - N/A   Unknown
6:56 PM 26.1 °F 17.6 °F 10.9 °F 53% 30.38 in - NNW 8.1 mph - N/A   Unknown
7:56 PM 26.1 °F 18.4 °F 12.0 °F 55% 30.35 in - North 6.9 mph - N/A   Unknown
8:56 PM 24.1 °F - 10.9 °F 57% 30.34 in - Calm Calm - N/A   Unknown
9:56 PM 23.0 °F 18.4 °F 12.0 °F 63% 30.33 in - ENE 3.5 mph - N/A   Unknown
10:56 PM 24.1 °F - 15.1 °F 69% 30.31 in - Calm Calm - N/A   Unknown
11:56 PM 25.0 °F - 14.0 °F 63% 30.30 in - Calm Calm - N/A   Unknown